User: anonymous   Login
Location: Fort Wayne
(41.1310°N, 85.1290°W)
Time: 11:30:57
(UTC-04:00)
Language:

Iridium 37 - Orbit

View from above orbital plane
View from above orbital plane
View from above satellite
View from above satellite

Ground track
Ground track

The orbit data is extracted from the following two-line orbital elements,

1 24968U 97056D   15089.51592876  .00000062  00000-0  14918-4 0  9997
2 24968 086.3932 297.2982 0002009 089.9570 270.1856 14.34217385916485
Epoch (UTC): 30 March 2015 12:22:56
Eccentricity: 0.0002009
inclination: 86.3932°
perigee height: 776 km
apogee height: 779 km
right ascension of ascending node: 297.2982°
argument of perigee: 89.9570°
revolutions per day: 14.34217385
mean anomaly at epoch: 270.1856°
orbit number at epoch: 91648

The dashed part of the orbit path shows where the satellite is in the earth's shadow,  

DLR